Flag for U.S.A. Weather past 2 weeks in Pullman, Washington, U.S.A.

Now
33 °F

Overcast.


Feels Like: 29 °F
Forecast: 32 / 38 °F
Wind: 5 mph from Southwest

Location: Pullman / Moscow Regional Airport

Current Time: Jan 31, 2015 at 5:01:21 PM

Latest Report: Jan 31, 2015 at 3:53 PM


Visibility: 10 mi

Pressure: 30.34 "Hg

Humidity: 78%

Dew point: 27 °F

Location of PullmanLocation

Historic Weather in Pullman — Graph

°F

Pullman temperature yesterday

Maximum temperature yesterday: 33 °F (at 1:53 PM)
Minimum temperature yesterday: 30 °F (at 8:53 PM)
Average temperature yesterday: 31 °F

Past Weeks' High & Low Weather Summary

 TemperatureHumidityPressure
High58 °F (Jan 26, 1:53 PM)100% (Jan 28, 1:53 AM)30.59 "Hg (Jan 28, 1:53 AM)
Low29 °F (Jan 21, 2:53 AM)55% (Jan 26, 11:53 AM)29.86 "Hg (Jan 18, 12:53 AM)
Average39 °F82%30.31 "Hg
* Reported Jan 16 3:53 PM — Jan 31 3:53 PM, Pullman, Weather by CustomWeather, © 2014

Note: Actual official high and low records may vary slightly from our data, if they occured in-between our weather recording intervals... More about our weather records

Advertising

Pullman weather history for previous 24 hours

 ConditionsComfort  
Time TempWeatherWind HumidityBarometerVisibility
3:53 PM
Jan 31
33 °FOvercast.5 mph78%30.34 "Hg10 mi
3:00 PM33 °FOvercast.No wind78%30.27 "Hg10 mi
1:53 PM34 °FOvercast.6 mph79%30.35 "Hg10 mi
12:53 PM33 °FOvercast.No wind82%30.36 "Hg10 mi
11:53 AM32 °FOvercast.3 mph82%30.37 "Hg10 mi
11:00 AM32 °FLow clouds.No wind82%30.29 "Hg10 mi
9:53 AM31 °FOvercast.No wind85%30.36 "Hg8 mi
8:53 AM30 °FOvercast.3 mph85%30.36 "Hg10 mi
7:53 AM30 °FOvercast.3 mph85%30.34 "Hg10 mi
6:53 AM30 °FOvercast.5 mph85%30.34 "Hg10 mi
5:53 AM30 °FOvercast.No wind92%30.33 "Hg10 mi
5:00 AM31 °FLow clouds.No wind85%30.25 "Hg7 mi
3:53 AM30 °FOvercast.No wind89%30.32 "Hg8 mi
2:53 AM30 °FOvercast.No wind85%30.31 "Hg10 mi
1:53 AM30 °FOvercast.No wind85%30.32 "Hg10 mi
12:53 AM30 °FOvercast.No wind85%30.31 "Hg10 mi
11:53 PM
Jan 30
30 °FOvercast.No wind89%30.31 "Hg9 mi
10:53 PM30 °FOvercast.No wind92%30.33 "Hg9 mi
9:53 PM30 °FLow clouds.3 mph92%30.33 "Hg8 mi
8:53 PM30 °FLow clouds.6 mph96%30.33 "Hg10 mi
7:53 PM31 °FIce fog.5 mph96%30.34 "Hg6 mi
6:53 PM31 °FIce fog.6 mph100%30.35 "Hg2 mi
6:04 PM31 °FIce fog.6 mph100%30.28 "Hg5 mi
5:53 PM32 °FIce fog.6 mph92%30.36 "Hg2 mi
Weather by CustomWeather, © 2014

See weather overviewHow to use our weather pages